Location: St Andrew
(49.4460°N, 2.5750°W)
Time: 11:33:26
(UTC+00:00)

Daily predictions for brighter satellites

Satellite Brightness Start Highest point End
(mag) Time Altitude Azimuth Time Altitude Azimuth Time Altitude Azimuth
Ariane Rocket 3.0 17:18:27 10° SSE 17:23:28 71° ENE 17:28:34 10° N
Meteor 1-21 Rocket 4.4 17:18:06 10° S 17:23:56 65° E 17:29:49 10° NNE
Cosmos 1656 Rocket 3.6 17:18:58 10° NNW 17:24:25 65° ENE 17:29:55 10° SE
Cosmos 1346 Rocket 3.8 17:21:45 10° NNE 17:25:01 24° ENE 17:28:15 10° SE
SL-24 R/B - RUBIN 2 3.6 17:20:36 10° NW 17:25:16 89° NE 17:29:37 10° SE
Cosmos 44 Rocket 4.5 17:22:08 10° SSE 17:25:52 24° ESE 17:29:41 10° ENE
ATLAS 2AS CENTAUR R/B 4.4 17:19:49 10° NW 17:27:14 44° WSW 17:34:07 10° S
Cosmos 2221 2.6 17:24:16 10° N 17:28:40 87° W 17:33:04 10° S
YAOGAN 1 2.9 17:25:06 10° SE 17:29:12 44° ENE 17:33:20 10° N
CORIOLIS 4.1 17:24:48 10° SSE 17:30:08 76° ENE 17:35:31 10° NNW
CZ-4 R/B 1.5 17:26:12 10° SSE 17:30:23 61° ENE 17:34:36 10° N
RESURS DK-1 4.2 17:31:48 10° N 17:34:00 14° NE 17:36:09 10° ENE
NOSS 2-1 (E) 3.8 17:30:36 10° SW 17:34:23 63° NW 17:38:54 10° NE
Cosmos 1674 3.4 17:30:58 10° SSW 17:34:38 55° WNW 17:38:20 10° N
Cosmos 2369 Rocket 4.1 17:31:30 10° NW 17:36:36 35° WSW 17:41:41 10° S
Cosmos 1315 Rocket 3.4 17:33:18 10° SSE 17:36:52 34° E 17:40:27 10° NNE
Cosmos 1943 Rocket 3.3 17:31:53 10° NW 17:37:17 49° WSW 17:42:36 10° S
Cosmos 2181 Rocket 4.1 17:31:59 10° S 17:38:24 74° E 17:44:48 10° NNE
Cosmos 1626 3.3 17:35:51 10° SE 17:38:51 24° E 17:41:55 10° NE
CSL-04 Rocket 4.1 17:37:03 10° S 17:42:35 72° WSW 17:48:06 10° NNW
Cosmos 1777 Rocket 4.0 17:37:42 10° NNW 17:42:58 69° ENE 17:48:12 10° SSE
SL-8 Rocket 4.0 17:37:53 10° N 17:44:08 83° E 17:50:22 10° S
ALOS 2.6 17:40:20 10° SE 17:44:45 43° ENE 17:49:11 10° N
Cosmos 2151 4.5 17:42:53 10° SE 17:45:41 17° E 17:48:32 10° NE
IRS-1A Rocket 4.2 17:40:27 10° SSE 17:45:59 72° ENE 17:51:40 10° NNW
TELKOM 3 2.6 17:48:16 10° W 17:50:23 75° N 17:51:57 17° E
NOSS 3-4 (A) 4.0 17:43:38 10° NW 17:50:36 82° SW 17:58:05 10° SE
NOSS 3-4 (C) 4.0 17:43:44 10° NW 17:50:42 82° SW 17:58:12 10° SE
ERBS 2.6 17:48:13 10° NW 17:51:31 47° NNE 17:54:27 12° E
Cosmos 2218 Rocket 3.9 17:48:35 10° N 17:54:48 83° E 18:00:56 10° S
Cosmos 1515 Rocket 4.2 17:51:46 10° N 17:55:42 31° ENE 17:59:34 10° SE
SPOT 3 Rocket 3.8 17:52:11 10° SE 17:57:05 48° ENE 18:02:04 10° N
Cosmos 1328 3.9 17:54:30 10° S 17:58:26 56° E 18:02:24 10° NNE
Cosmos 1408 Rocket 3.8 17:54:24 10° SSE 17:58:30 46° E 18:02:39 10° NNE
Meteor 2-2 Rocket 4.2 17:52:48 10° N 17:58:36 77° ENE 18:04:15 10° SSE
Geosat 4.1 17:54:09 10° NE 17:59:10 63° ESE 18:04:09 10° SSW
MOS 1 4.3 17:54:18 10° SSE 17:59:51 64° ENE 18:05:27 10° N
NOSS 3-3 (A) 4.5 17:54:59 10° WSW 18:01:09 63° NW 18:08:02 10° NE
NOSS 3-3 (C) 4.5 17:55:05 10° WSW 18:01:15 63° NW 18:08:08 10° NE
Cosmos 1076 Rocket 3.6 17:57:13 10° S 18:01:35 84° W 18:06:00 10° N
ERS-2 2.8 17:58:24 10° SE 18:01:43 32° ENE 18:05:04 10° N
Cosmos 1400 Rocket 3.4 17:58:25 10° SSW 18:02:28 62° WNW 18:06:35 10° N
FENGYUN 3A 3.6 17:57:35 10° SSE 18:02:51 63° ENE 18:08:11 10° N
Cosmos 1300 3.5 17:59:10 10° NNW 18:02:55 54° W 18:06:39 10° S
BREEZE-M DEB (TANK) 3.1 18:00:29 10° SW 18:04:50 35° SSE 18:06:23 18° ESE
CZ-2C R/B 3.7 18:01:51 10° NNE 18:06:36 71° ESE 18:11:13 10° S
COSMO-SKYMED 1 2.7 18:03:00 10° NNE 18:07:16 51° E 18:11:29 10° S
Cosmos 1980 Rocket 3.8 18:03:58 10° N 18:07:16 15° NNE 18:08:48 14° NE
USA 116 4.0 18:03:33 10° NNE 18:07:53 82° ESE 18:12:44 10° SSW
Cosmos 1340 3.8 18:05:58 10° NNE 18:09:02 23° ENE 18:10:49 17° ESE
METEOR-M 4.4 18:06:45 10° S 18:12:06 74° WSW 18:17:29 10° NNW
Cosmos 1500 Rocket 4.5 18:08:43 10° SSE 18:12:29 27° E 18:15:36 13° NE
Cosmos 1898 Rocket 4.2 18:08:33 10° N 18:13:21 33° NE 18:17:39 12° ESE
Resurs 01 Rocket 3.7 18:16:46 11° NNE 18:16:46 11° NNE 18:17:05 10° NNE
ATLAS 5 CENTAUR R/B 3.8 18:11:20 10° NW 18:15:09 19° N 18:18:03 14° NE
Cosmos 1703 3.7 18:11:59 10° SSE 18:15:44 41° E 18:19:30 10° NNE
Cosmos 1241 Rocket 4.5 18:11:17 10° NW 18:17:32 85° SW 18:23:47 10° SSE
MONITOR-E 4.1 18:16:33 10° SSE 18:19:36 87° WSW 18:22:40 10° NNW
Cosmos 44 2.9 18:20:24 10° SW 18:24:44 83° SE 18:27:48 20° NE
Cosmos 1328 Rocket 3.4 18:20:49 10° N 18:25:13 84° ENE 18:29:34 10° S
Cosmos 909 Rocket 4.1 18:19:35 10° NW 18:26:44 86° NE 18:33:01 10° SE
Cosmos 1743 Rocket 3.7 18:23:30 10° SSE 18:27:40 46° E 18:31:44 11° NNE
Cosmos 2366 rocket 4.4 18:21:37 10° NNW 18:27:48 65° W 18:33:53 10° S
Cosmos 2228 Rocket 3.1 18:23:46 10° N 18:28:22 70° ENE 18:32:56 10° SSE
Cosmos 2278 4.3 18:23:21 10° NNW 18:28:34 35° NE 18:31:13 23° E
Cosmos 2098 Rocket 3.7 18:23:49 10° N 18:29:05 84° E 18:35:40 10° S
Cosmos 371 Rocket 3.7 18:27:10 10° S 18:31:37 38° ESE 18:33:39 26° ENE
Cosmos 1821 Rocket 4.0 18:27:05 10° N 18:33:07 54° ENE 18:39:13 10° SSE
SJ-6B 3.8 18:36:43 26° NE 18:36:43 26° NE 18:38:58 10° N
USA 215 3.8 18:32:03 20° NE 18:36:23 48° N 18:42:36 10° W
Envisat 3.7 18:35:58 28° E 18:36:55 30° ENE 18:41:19 10° N
Meteor 1-27 4.4 18:31:23 10° NNW 18:37:07 80° W 18:42:54 10° S
COSMOS 2406 3.2 18:37:07 10° S 18:42:44 61° ESE 18:46:24 22° NE
Meteor 1-11 4.2 18:37:26 10° S 18:43:03 90° ESE 18:48:47 10° NNE
Cosmos 2369 4.0 18:38:21 10° NNW 18:43:52 45° NE 18:46:25 28° ESE
Cosmos 1570 Rocket 4.3 18:40:10 10° S 18:45:09 43° ESE 18:46:56 32° ENE
TSX-5 4.3 18:41:59 10° SW 18:45:14 50° NW 18:47:28 21° NNE
GEOS 3 Rocket 3.7 18:43:42 25° ESE 18:46:48 61° NE 18:52:08 10° NW
Cosmos 1766 Rocket 4.4 18:42:49 10° SSW 18:47:02 50° WNW 18:51:17 10° N
Cosmos 1656 3.9 18:43:30 10° NNW 18:48:43 43° NE 18:50:16 35° E
Nadezhda 3 Rocket 3.9 18:45:38 10° S 18:51:57 76° E 18:58:21 10° NNE
Cosmos 1697 Rocket 3.2 18:48:05 10° NNW 18:53:14 35° NE 18:53:45 34° ENE
Cosmos 2058 2.8 18:49:10 10° S 18:53:22 85° E 18:56:48 15° NNE
Cosmos 1151 Rocket 3.1 18:50:08 10° NNW 18:54:33 78° W 18:58:55 10° S
SKYMED 2 4.3 18:51:05 10° N 18:55:21 54° WNW 18:59:35 10° SSW
FengYun 1-2 T 4.2 18:53:20 10° SSE 18:58:58 90° ENE 19:04:36 10° NNW
Cosmos 1455 2.9 18:56:19 10° NNW 19:00:06 53° W 19:03:49 10° S
H-2A R/B 2.9 18:56:42 10° S 19:00:31 73° WSW 19:04:25 10° NNW
Cosmos 1937 Rocket 3.5 18:59:14 10° NNW 19:04:25 56° ENE 19:05:31 46° ESE
Cosmos 2298 Rocket 4.1 19:01:05 10° NNW 19:06:18 53° ENE 19:06:58 49° E
Cosmos 44 Rocket 3.6 19:02:24 10° SW 19:07:03 59° NW 19:09:04 32° NNE
Meteor 2-10 Rocket 3.4 19:02:26 10° N 19:07:26 55° ENE 19:07:52 53° E
Cosmos 1934 Rocket 3.9 19:01:25 10° N 19:07:48 72° E 19:14:10 10° SSE
Thor Agena Rocket 3.7 19:10:36 49° ESE 19:10:36 49° ESE 19:15:26 10° S
RESURS DK-1 2.4 19:08:39 10° NNW 19:12:20 63° N 19:12:20 63° N
Cosmos 1626 4.1 19:10:51 10° SW 19:14:06 28° WNW 19:17:22 10° N
Cosmos 1605 Rocket 3.9 19:09:46 10° N 19:15:50 58° ENE 19:18:16 35° SE
CZ-4C R/B 3.4 19:13:04 10° S 19:15:35 24° SSE 19:15:35 24° SSE
Cosmos 2322 Rocket 4.0 19:15:49 10° N 19:18:11 16° NNE 19:18:11 16° NNE
ALOS 4.5 19:18:29 10° SSW 19:22:21 26° W 19:26:16 10° NW
Cosmos 2151 3.7 19:18:23 10° SSW 19:22:35 53° WNW 19:25:46 17° N
Cosmos 1869 4.2 19:20:55 10° NNW 19:23:32 40° NNW 19:23:32 40° NNW
Cosmos 332 Rocket 4.1 19:22:30 10° SSW 19:27:22 65° WNW 19:29:09 38° N
ERBS 4.1 19:24:58 10° WNW 19:27:42 30° SW 19:27:42 30° SW
Cosmos 2150 Rocket 4.0 19:30:05 10° NNW 19:34:37 66° N 19:34:37 66° N
SL-16 R/B 4.0 19:38:27 10° N 19:40:36 18° N 19:40:36 18° N
Cosmos 1340 4.4 19:41:23 10° NNW 19:44:46 31° W 19:45:54 26° SW
Lacrosse 5 3.4 19:40:56 10° SSW 19:43:12 24° S 19:43:12 24° S
Cosmos 2360 Rocket 4.4 19:46:04 10° N 19:47:06 12° N 19:47:06 12° N
Resurs 01 Rocket 3.9 19:54:20 16° NNW 19:54:20 16° NNW 19:55:10 10° NNW
Cosmos 1980 Rocket 3.2 19:47:04 10° NNW 19:50:35 36° N 19:50:35 36° N
Cosmos 2208 Rocket 4.4 19:49:47 10° SW 19:55:03 63° WNW 19:55:22 61° NW
Cosmos 1898 Rocket 4.5 19:50:33 10° NW 19:55:36 45° WSW 19:58:04 27° SSW
ATLAS 5 CENTAUR R/B 3.6 19:56:19 10° NW 19:59:36 28° N 19:59:36 28° N
Cosmos 2278 4.4 20:07:26 10° NW 20:12:56 50° WSW 20:13:13 49° WSW
Envisat 4.0 20:16:09 43° W 20:16:09 43° W 20:20:40 10° NNW
USA 215 3.7 20:19:24 49° N 20:19:24 49° N 20:25:04 10° WNW
Cosmos 1697 Rocket 4.0 20:31:59 10° NW 20:35:32 35° WNW 20:35:32 35° WNW
Cosmos 2344 4.3 20:34:10 10° NW 20:43:53 69° NE 20:44:06 69° NE
